Regional Weather Roundup
Issued by NWS Midland/Odessa, TX

Skip options and go directly to product.
Home | Oldest Version | Previous Version | Current Version | All | Text Only | Save Text | Print | Product List | Glossary On

Skip product version selection by date and time.   
266
ASUS44 KMAF 260502
RWRMAF
MIDLAND AREA WEATHER ROUNDUP
NATIONAL WEATHER SERVICE MIDLAND TX
1200 AM CDT SAT JUL 26 2014

...IN SOUTHWEST TEXAS AND SOUTHEAST NEW MEXICO...

CITY           SKY/WX    TMP DP  RH WIND       PRES   REMARKS
ALPINE         CLEAR     78  59  52 SE16      30.19R
ANDREWS        FAIR      84  55  36 S10       30.05S
ARTESIA        CLEAR     81  45  28 S8        30.03R
BIG SPRING     CLEAR     85  53  33 SE9       30.04S
CARLSBAD       CLEAR     85  44  23 S9        30.01R
DRYDEN           N/A     89  63  41 E9        30.00R
FORT STOCKTON  CLEAR     83  59  44 SE14      30.05R
GUAD PASS      CLEAR     76  41  28 E15       30.21R
HOBBS          CLEAR     82  45  26 SE12      30.07S
MARFA          CLEAR     75  54  46 E13       30.19R
MIDLAND AIRPK  CLEAR     87  55  33 S10       30.04R
MIDLAND INTL   CLEAR     86  57  37 S8        30.03S
ODESSA         CLEAR     86  57  37 S12       30.05R
PECOS          CLEAR     86  56  35 SE15      30.00R
PRESIDIO       FAIR      90  54  29 NE9       30.00R
SEMINOLE       CLEAR     83  51  33 S12       30.06S
SNYDER         CLEAR     84  61  44 S8        30.02S
WINK           CLEAR     87  58  37 S15       30.01R
$$
...OTHER STATIONS IN TEXAS...

CITY           SKY/WX    TMP DP  RH WIND       PRES   REMARKS
ABILENE        CLEAR     83  63  50 SE10      30.00R
AMARILLO       CLEAR     81  48  31 S16       30.02R
AUSTIN         PTCLDY    83  70  64 S13       29.99R
BROWNSVILLE    CLEAR     81  76  84 SE12      30.01R
CORPUS CHRISTI PTCLDY    81  77  88 S14       30.00R
DALLAS FTW     PTCLDY    87  69  54 S13       29.96R
DEL RIO        CLEAR     87  65  47 SE13      29.95R
EL PASO        PTCLDY    89  48  24 SE5       30.03R
HOUSTON INT    PTCLDY    82  74  76 S3        30.01R
LUBBOCK        CLEAR     83  50  31 S13       30.02S
SAN ANGELO     CLEAR     86  61  42 S9        29.99R
SAN ANTONIO    PTCLDY    83  68  60 S14       30.01R
WACO           CLEAR     85  70  60 S13G22    29.97S
WICHITA FALLS  NOT AVBL
$$
...OTHER LOCATIONS IN NEW MEXICO...

CITY           SKY/WX    TMP DP  RH WIND       PRES   REMARKS
ALAMAGORDO     CLEAR     81  45  28 S9        30.05S
ALBUQUERQUE    PTCLDY    84  43  23 S7        30.12R
CANNON AFB     CLEAR     77  50  38 S9        30.08R
CLOVIS         NOT AVBL
HOLLOMAN AFB   CLEAR     87  45  23 NW12      30.03R
ROSWELL        CLEAR     84  46  26 S12       30.02R
RUIDOSO        CLEAR     72  45  37 SE10      30.31S
SANTA FE       CLEAR     76  49  38 E3        30.19R
TRUTH OR CONSE CLEAR     83  40  21 W7        30.10R
TUCUMCARI      CLEAR     86  48  26 S18G25    30.00R
$$

USA.gov is the U.S. government's official web portal to all federal, state and local government web resources and services.